K5LLL-13 Weather Reports


time (UTC)temp
C
wind
direction
speed
KPH
gust
KPH
rain 1hr
cm
rain 24hr
cm
rain mn
cm
humidity
%
barometer
mb
20260504151016 22 158 12.9 35.4 0.00 0.00 0.00 70 1015.8
20260504141015 20 135 6.4 14.5 0.00 0.00 0.00 75 1016.1
20260504081017 16 135 4.8 9.7 0.00 0.00 0.00 81 1016.7
20260504045017 17 135 8.0 12.9 0.00 0.00 0.00 73 1018.8
20260504044037 17 135 6.4 12.9 0.00 0.00 0.00 73 1018.8
20260504043057 17 135 8.0 16.1 0.00 0.00 0.00 73 1018.8
20260504042017 17 135 9.7 19.3 0.00 0.00 0.00 73 1018.8
20260504041017 18 135 8.0 16.1 0.00 0.00 0.00 72 1018.9
20260504040017 18 135 6.4 12.9 0.00 0.00 0.00 72 1019.0
20260504035016 18 135 8.0 17.7 0.00 0.00 0.00 71 1019.0
20260504034017 18 135 6.4 12.9 0.00 0.00 0.00 71 1018.8
20260504033016 18 135 8.0 14.5 0.00 0.00 0.00 70 1018.9
20260504032017 18 135 8.0 16.1 0.00 0.00 0.00 68 1018.7
20260504031017 18 135 4.8 12.9 0.00 0.00 0.00 66 1018.7
20260504030017 18 135 4.8 12.9 0.00 0.00 0.00 63 1018.7
20260504025017 18 135 6.4 11.3 0.00 0.00 0.00 62 1018.7
20260504024017 18 135 6.4 9.7 0.00 0.00 0.00 60 1018.9
20260504023017 19 135 4.8 11.3 0.00 0.00 0.00 58 1018.7
20260504022016 19 113 4.8 9.7 0.00 0.00 0.00 58 1018.2
20260504021016 20 113 4.8 8.0 0.00 0.00 0.00 58 1018.0
20260504020017 20 113 4.8 9.7 0.00 0.00 0.00 58 1017.9
20260504015016 20 113 4.8 9.7 0.00 0.00 0.00 58 1018.0
20260504014016 20 113 3.2 6.4 0.00 0.00 0.00 58 1017.9
20260504013016 21 113 3.2 8.0 0.00 0.00 0.00 56 1017.9
20260504012017 21 113 3.2 6.4 0.00 0.00 0.00 55 1017.7
20260504011016 21 113 3.2 8.0 0.00 0.00 0.00 53 1017.7
20260504010016 22 113 4.8 11.3 0.00 0.00 0.00 52 1017.7
20260504005056 22 113 4.8 11.3 0.00 0.00 0.00 51 1017.8
20260504004017 22 135 4.8 9.7 0.00 0.00 0.00 50 1017.7
20260504003016 23 113 4.8 8.0 0.00 0.00 0.00 49 1017.8
20260504002016 23 135 4.8 12.9 0.00 0.00 0.00 48 1018.1
20260504001016 23 135 4.8 14.5 0.00 0.00 0.00 46 1018.2
20260504000037 24 135 9.7 19.3 0.00 0.00 0.00 43 1018.3
20260503235017 24 135 8.0 17.7 0.00 0.00 0.00 43 1018.4
20260503234036 24 135 8.0 17.7 0.00 0.00 0.00 43 1018.4
20260503233036 24 135 8.0 16.1 0.00 0.00 0.00 43 1018.2
20260503232016 25 135 9.7 22.5 0.00 0.00 0.00 41 1018.1
20260503231016 25 135 8.0 20.9 0.00 0.00 0.00 39 1018.2
20260503230036 26 158 4.8 20.9 0.00 0.00 0.00 39 1018.4
20260503225016 25 135 8.0 16.1 0.00 0.00 0.00 37 1018.4
20260503224016 25 135 6.4 12.9 0.00 0.00 0.00 39 1018.7
20260503223016 26 135 6.4 16.1 0.00 0.00 0.00 39 1018.8
20260503222016 25 135 9.7 17.7 0.00 0.00 0.00 41 1018.8
20260503221016 25 135 4.8 16.1 0.00 0.00 0.00 39 1018.8
20260503220017 26 135 8.0 20.9 0.00 0.00 0.00 39 1019.0
20260503215016 26 158 9.7 19.3 0.00 0.00 0.00 41 1019.2
20260503214016 25 113 8.0 19.3 0.00 0.00 0.00 42 1019.2
20260503213016 25 158 9.7 19.3 0.00 0.00 0.00 39 1019.8
20260503212016 26 203 6.4 19.3 0.00 0.00 0.00 40 1020.0
20260503211016 26 113 9.7 30.6 0.00 0.00 0.00 40 1020.2
20260503210016 26 135 6.4 16.1 0.00 0.00 0.00 37 1020.2
20260503205016 25 113 9.7 20.9 0.00 0.00 0.00 37 1020.2
20260503204017 26 135 6.4 17.7 0.00 0.00 0.00 36 1020.6
20260503203016 26 135 6.4 14.5 0.00 0.00 0.00 37 1020.6
20260503202016 25 90 9.7 20.9 0.00 0.00 0.00 34 1020.7
20260503201016 26 113 8.0 17.7 0.00 0.00 0.00 38 1020.9
20260503200016 25 135 4.8 16.1 0.00 0.00 0.00 38 1020.9
20260503195016 25 135 8.0 20.9 0.00 0.00 0.00 39 1021.2
20260503194016 25 135 9.7 17.7 0.00 0.00 0.00 36 1021.3
20260503193016 25 135 12.9 27.4 0.00 0.00 0.00 37 1021.4
20260503192037 25 90 6.4 17.7 0.00 0.00 0.00 40 1021.5
20260503191016 26 135 8.0 16.1 0.00 0.00 0.00 39 1021.7
20260503190016 25 135 8.0 16.1 0.00 0.00 0.00 41 1021.9
20260503185016 25 135 11.3 22.5 0.00 0.00 0.00 39 1022.1
20260503184016 25 113 9.7 22.5 0.00 0.00 0.00 39 1022.0
20260503183016 25 135 8.0 19.3 0.00 0.00 0.00 40 1022.3
20260503182016 25 113 9.7 20.9 0.00 0.00 0.00 40 1022.5
20260503180016 25 158 9.7 17.7 0.00 0.00 0.00 40 1022.8
20260503175015 25 90 6.4 20.9 0.00 0.00 0.00 42 1022.8
20260503174016 24 113 8.0 14.5 0.00 0.00 0.00 42 1023.0
20260503173016 25 203 4.8 14.5 0.00 0.00 0.00 41 1023.3
20260503172015 25 180 4.8 14.5 0.00 0.00 0.00 42 1023.4
20260503171015 24 113 6.4 11.3 0.00 0.00 0.00 40 1023.6